ABW1111 ULLI-ENSB

Flight info

Callsign ABW1111
Flight time N/A
Altitude 35000
Route RELNI1A RELNI T693 DISUP/K0880F340 T693 OTMOL/K0885F360 T693 UMDEL P190 PELOR DCT LARNU/N0489F360 DCT 75N026E DCT AMPIS
Aircraft B77L/H-SDE1E2E3FGHIJ2J3J4J5M1RWXY/LB1D1

Departure

Time 2026-05-01 13:48
Airport Pulkovo Airport (ULLI)

Arrival

Time N/A
Airport Svalbard Airport, Longyear (ENSB)
Time Latitude Longitude Altitude Speed Heading
2026-05-01 13:31 59.79975 30.29057 81 ft 0 kts 196°
2026-05-01 13:42 59.79981 30.29061 81 ft 2 kts 196°
2026-05-01 13:42 59.79995 30.29069 81 ft 2 kts 196°
2026-05-01 13:42 59.80010 30.29078 81 ft 2 kts 196°
2026-05-01 13:42 59.80024 30.29086 80 ft 1 kts 196°
2026-05-01 13:43 59.80033 30.29091 80 ft 2 kts 188°
2026-05-01 13:43 59.80048 30.29090 80 ft 2 kts 160°
2026-05-01 13:43 59.80061 30.29076 80 ft 2 kts 139°
2026-05-01 13:43 59.80071 30.29054 80 ft 2 kts 116°
2026-05-01 13:44 59.80074 30.29040 79 ft 1 kts 105°
2026-05-01 13:44 59.80074 30.29034 79 ft 0 kts 105°
2026-05-01 13:45 59.80074 30.29035 79 ft 0 kts 105°
2026-05-01 13:45 59.80055 30.29170 80 ft 14 kts 105°
2026-05-01 13:45 59.80022 30.29386 80 ft 15 kts 106°
2026-05-01 13:46 59.79986 30.29612 81 ft 17 kts 107°
2026-05-01 13:46 59.79949 30.29851 81 ft 21 kts 107°
2026-05-01 13:46 59.79971 30.30093 82 ft 17 kts 48°
2026-05-01 13:46 59.80054 30.30268 81 ft 16 kts 37°
2026-05-01 13:47 59.80122 30.30244 81 ft 10 kts 292°
2026-05-01 13:47 59.80156 30.30017 81 ft 41 kts 286°
2026-05-01 13:47 59.80316 30.28955 78 ft 116 kts 286°
2026-05-01 13:47 59.80609 30.26998 136 ft 172 kts 285°
2026-05-01 13:48 59.80937 30.24810 939 ft 168 kts 286°
2026-05-01 13:48 59.81277 30.22592 1578 ft 174 kts 284°
2026-05-01 13:48 59.81618 30.20194 1933 ft 190 kts 284°
2026-05-01 13:48 59.82008 30.17566 2319 ft 206 kts 285°
2026-05-01 13:49 59.82422 30.14758 2770 ft 223 kts 285°
2026-05-01 13:49 59.82871 30.11699 3283 ft 239 kts 286°
2026-05-01 13:49 59.83346 30.08470 3982 ft 248 kts 287°
2026-05-01 13:49 59.83838 30.05197 4814 ft 251 kts 292°
2026-05-01 13:50 59.84779 30.02338 5501 ft 255 kts 318°
2026-05-01 13:50 59.86286 30.00571 6284 ft 256 kts 343°
2026-05-01 13:50 59.88048 30.00288 7087 ft 260 kts
2026-05-01 13:50 59.89717 30.01594 7837 ft 268 kts 33°
2026-05-01 13:51 59.90969 30.04406 8502 ft 279 kts 60°
2026-05-01 13:51 59.91671 30.07992 9327 ft 282 kts 66°
2026-05-01 13:51 59.92297 30.11693 10050 ft 284 kts 66°
2026-05-01 13:51 59.92925 30.15425 10461 ft 294 kts 66°
2026-05-01 13:52 59.93592 30.19392 10805 ft 311 kts 66°
2026-05-01 13:52 59.94297 30.23591 11186 ft 328 kts 66°
2026-05-01 13:52 59.95034 30.28000 11550 ft 343 kts 66°
2026-05-01 13:52 59.95789 30.32530 11938 ft 358 kts 66°
2026-05-01 13:53 59.96586 30.37325 12499 ft 371 kts 66°
2026-05-01 13:53 59.98214 30.47204 13957 ft 379 kts 66°
2026-05-01 13:53 59.99028 30.52171 14737 ft 382 kts 66°
2026-05-01 13:54 59.99859 30.57252 15506 ft 386 kts 66°
2026-05-01 13:54 60.00677 30.62276 16253 ft 388 kts 65°
2026-05-01 13:54 60.01512 30.67411 16954 ft 392 kts 66°
2026-05-01 13:54 60.02359 30.72630 17627 ft 396 kts 66°
2026-05-01 13:55 60.03198 30.77825 18295 ft 399 kts 65°
2026-05-01 13:55 60.04052 30.83119 18953 ft 403 kts 66°
2026-05-01 13:55 60.04914 30.88486 19553 ft 407 kts 66°
2026-05-01 13:55 60.05772 30.93845 20184 ft 410 kts 66°
2026-05-01 13:56 60.06637 30.99261 20829 ft 413 kts 66°
2026-05-01 13:56 60.07512 31.04766 21460 ft 416 kts 66°
2026-05-01 13:56 60.08382 31.10247 22012 ft 420 kts 66°
2026-05-01 13:56 60.09261 31.15805 22561 ft 424 kts 65°
2026-05-01 13:57 60.10145 31.21419 23134 ft 426 kts 65°
2026-05-01 13:57 60.10737 31.25192 23566 ft 427 kts 65°
2026-05-01 13:57 60.11914 31.32711 24397 ft 429 kts 65°
2026-05-01 13:57 60.12884 31.38352 24818 ft 431 kts 60°
2026-05-01 13:58 60.14256 31.43657 25136 ft 431 kts 51°
2026-05-01 13:58 60.16033 31.48416 25580 ft 428 kts 42°
2026-05-01 13:58 60.18177 31.52539 26167 ft 423 kts 33°
2026-05-01 13:58 60.20555 31.55849 26687 ft 421 kts 25°
2026-05-01 13:59 60.23169 31.58401 27222 ft 420 kts 19°
2026-05-01 13:59 60.25851 31.60617 27746 ft 422 kts 18°
2026-05-01 13:59 60.28562 31.62864 28248 ft 425 kts 19°
2026-05-01 13:59 60.31305 31.65167 28698 ft 430 kts 20°
2026-05-01 14:00 60.34046 31.67491 29172 ft 433 kts 20°
2026-05-01 14:00 60.36841 31.69880 29740 ft 434 kts 20°
2026-05-01 14:00 60.39589 31.72241 30418 ft 432 kts 20°
2026-05-01 14:00 60.42360 31.74633 31111 ft 430 kts 20°
2026-05-01 14:01 60.45123 31.77028 31784 ft 427 kts 20°
2026-05-01 14:01 60.47893 31.79435 32373 ft 425 kts 20°
2026-05-01 14:01 60.50575 31.81770 32904 ft 424 kts 20°
2026-05-01 14:01 60.53283 31.84133 33083 ft 426 kts 20°
2026-05-01 14:02 60.58680 31.88862 33091 ft 422 kts 20°
2026-05-01 14:02 60.64050 31.93586 33089 ft 423 kts 20°
2026-05-01 14:03 60.69531 31.98100 33082 ft 420 kts 13°
2026-05-01 14:03 60.75245 31.99950 33084 ft 418 kts
2026-05-01 14:04 60.81042 32.00366 33081 ft 415 kts
2026-05-01 14:04 60.85826 32.00712 33077 ft 417 kts
2026-05-01 14:05 60.92632 32.01223 33073 ft 417 kts
2026-05-01 14:05 60.98368 32.01638 33065 ft 416 kts 359°
2026-05-01 14:06 61.04192 32.01561 33066 ft 418 kts 358°
2026-05-01 14:06 61.09977 32.01472 33062 ft 416 kts 358°
2026-05-01 14:07 61.15791 32.01401 33076 ft 416 kts 358°
2026-05-01 14:08 61.24450 32.01308 33069 ft 416 kts 358°
2026-05-01 14:08 61.30247 32.01246 33067 ft 417 kts 358°
2026-05-01 14:09 61.35990 32.01178 33062 ft 417 kts 358°
2026-05-01 14:09 61.41756 32.01109 33056 ft 416 kts 358°
2026-05-01 14:10 61.47549 32.01041 33054 ft 418 kts 358°
2026-05-01 14:10 61.53313 32.00974 33049 ft 416 kts 358°
2026-05-01 14:11 61.59087 32.00906 33043 ft 417 kts 358°
2026-05-01 14:11 61.67757 32.00803 33039 ft 417 kts 357°
2026-05-01 14:12 61.73544 32.00735 33037 ft 417 kts 357°
2026-05-01 14:12 61.79303 32.00667 33030 ft 416 kts 357°
2026-05-01 14:13 61.84115 32.00609 33027 ft 416 kts 357°
2026-05-01 14:13 61.90847 32.00483 33023 ft 417 kts 357°
2026-05-01 14:14 61.96613 32.00339 33023 ft 416 kts 357°
2026-05-01 14:14 62.02380 32.00198 33018 ft 416 kts 356°
2026-05-01 14:15 62.08150 32.00056 33004 ft 418 kts 356°
2026-05-01 14:15 62.13963 31.99914 33020 ft 419 kts 356°
2026-05-01 14:16 62.19738 31.99773 33020 ft 418 kts 356°
2026-05-01 14:16 62.25544 31.99630 33012 ft 417 kts 356°
2026-05-01 14:17 62.31339 31.99474 32994 ft 419 kts 356°
2026-05-01 14:17 62.37143 31.99305 32978 ft 418 kts 355°
2026-05-01 14:18 62.42976 31.99134 32969 ft 420 kts 356°
2026-05-01 14:18 62.47844 31.98992 32968 ft 418 kts 356°
2026-05-01 14:19 62.54638 31.98793 32962 ft 420 kts 355°
2026-05-01 14:19 62.60439 31.98623 32964 ft 418 kts 355°
2026-05-01 14:20 62.69222 31.98364 32956 ft 421 kts 355°
2026-05-01 14:21 62.75078 31.98186 32947 ft 420 kts 355°
2026-05-01 14:21 62.80938 31.97894 32949 ft 421 kts 355°
2026-05-01 14:22 62.89685 31.97477 32930 ft 422 kts 354°
2026-05-01 14:22 62.95552 31.97203 32924 ft 422 kts 354°
2026-05-01 14:23 63.01422 31.96929 32919 ft 422 kts 354°
2026-05-01 14:23 63.07258 31.96657 32917 ft 421 kts 354°
2026-05-01 14:24 63.13141 31.96380 32939 ft 423 kts 354°
2026-05-01 14:24 63.19016 31.96104 32926 ft 423 kts 354°
2026-05-01 14:25 63.24867 31.95827 32923 ft 423 kts 354°
2026-05-01 14:25 63.30744 31.95549 32929 ft 422 kts 354°
2026-05-01 14:26 63.39543 31.95700 32926 ft 425 kts 356°
2026-05-01 14:27 63.45457 31.96010 32919 ft 424 kts 356°
2026-05-01 14:27 63.51299 31.96322 32911 ft 425 kts 356°
2026-05-01 14:28 63.60141 31.96779 32922 ft 425 kts 356°
2026-05-01 14:28 63.66030 31.97081 32909 ft 423 kts 356°
2026-05-01 14:29 63.71888 31.97379 32906 ft 424 kts 355°
2026-05-01 14:30 63.83662 31.97980 32894 ft 424 kts 355°
2026-05-01 14:31 63.92566 31.98436 32889 ft 427 kts 355°
2026-05-01 14:31 63.98466 31.98742 32888 ft 425 kts 355°
2026-05-01 14:32 64.04350 31.99047 32878 ft 426 kts 355°
2026-05-01 14:32 64.10226 31.99352 32877 ft 426 kts 355°
2026-05-01 14:33 64.16204 31.99664 32888 ft 427 kts 354°
2026-05-01 14:33 64.22116 31.99976 32884 ft 426 kts 355°
2026-05-01 14:34 64.28033 32.00286 32875 ft 427 kts 355°
2026-05-01 14:34 64.33948 32.00600 32875 ft 427 kts 355°
2026-05-01 14:35 64.39878 32.00913 32875 ft 430 kts 355°
2026-05-01 14:35 64.45785 32.01231 32858 ft 428 kts 354°
2026-05-01 14:36 64.51776 32.01551 32854 ft 429 kts 354°
2026-05-01 14:36 64.57715 32.01870 32858 ft 431 kts 354°
2026-05-01 14:37 64.63680 32.02196 32855 ft 427 kts 354°
2026-05-01 14:37 64.69603 32.02513 32857 ft 432 kts 354°
2026-05-01 14:38 64.75588 32.02844 32849 ft 427 kts 354°
2026-05-01 14:38 64.81561 32.03168 32839 ft 432 kts 354°
2026-05-01 14:39 64.87500 32.03497 32849 ft 430 kts 354°
2026-05-01 14:39 64.93520 32.03828 32833 ft 432 kts 354°
2026-05-01 14:40 64.99478 32.04165 32813 ft 431 kts 353°
2026-05-01 14:40 65.05505 32.04500 32802 ft 432 kts 354°
2026-05-01 14:41 65.11500 32.04837 32822 ft 434 kts 354°
2026-05-01 14:41 65.17542 32.05180 32825 ft 433 kts 354°
2026-05-01 14:42 65.23526 32.05520 32822 ft 434 kts 354°
2026-05-01 14:42 65.29557 32.05864 32817 ft 435 kts 354°
2026-05-01 14:43 65.35551 32.06211 32821 ft 432 kts 354°
2026-05-01 14:43 65.41569 32.06555 32813 ft 435 kts 354°
2026-05-01 14:44 65.47609 32.06905 32808 ft 434 kts 354°
2026-05-01 14:44 65.56649 32.07426 32820 ft 439 kts 354°
2026-05-01 14:45 65.65691 32.07849 32808 ft 435 kts 354°
2026-05-01 14:46 65.71759 32.08130 32810 ft 437 kts 354°
2026-05-01 14:46 65.80827 32.08559 32813 ft 438 kts 354°
2026-05-01 14:47 65.86886 32.08847 32827 ft 439 kts 354°
2026-05-01 14:48 65.96056 32.09287 32814 ft 442 kts 354°
2026-05-01 14:48 66.05216 32.09733 32820 ft 439 kts 355°
2026-05-01 14:49 66.17381 32.10325 32828 ft 440 kts 355°
2026-05-01 14:50 66.29609 32.10928 32809 ft 440 kts 355°
2026-05-01 14:51 66.38781 32.11384 32807 ft 440 kts 355°
2026-05-01 14:52 66.47872 32.10535 32806 ft 437 kts 351°
2026-05-01 14:53 66.56928 32.09166 32807 ft 438 kts 351°
2026-05-01 14:53 66.62998 32.08288 32804 ft 436 kts 351°
2026-05-01 14:54 66.69084 32.07418 32805 ft 437 kts 351°
2026-05-01 14:54 66.75160 32.06551 32804 ft 438 kts 351°
2026-05-01 14:55 66.81212 32.05689 32825 ft 443 kts 351°
2026-05-01 14:55 66.84285 32.05249 33171 ft 443 kts 351°
2026-05-01 14:55 66.87345 32.04817 33797 ft 436 kts 351°
2026-05-01 14:55 66.90341 32.04392 34287 ft 431 kts 351°
2026-05-01 14:56 66.93326 32.03963 34664 ft 430 kts 351°
2026-05-01 14:56 66.96304 32.03531 34769 ft 435 kts 351°
2026-05-01 14:56 66.99320 32.03094 34784 ft 436 kts 351°
2026-05-01 14:57 67.05309 32.02231 34775 ft 433 kts 351°
2026-05-01 14:57 67.14400 32.00906 34778 ft 435 kts 351°
2026-05-01 14:58 67.20412 32.00027 34770 ft 434 kts 351°
2026-05-01 14:58 67.26476 31.99133 34775 ft 437 kts 351°
2026-05-01 14:59 67.32488 31.98245 34767 ft 437 kts 351°
2026-05-01 14:59 67.38520 31.97348 34769 ft 437 kts 351°
2026-05-01 15:00 67.47604 31.95989 34777 ft 440 kts 351°
2026-05-01 15:01 67.53673 31.95079 34774 ft 436 kts 351°
2026-05-01 15:01 67.59738 31.94159 34781 ft 440 kts 351°
2026-05-01 15:02 67.65821 31.93236 34788 ft 437 kts 351°
2026-05-01 15:02 67.71909 31.92299 34785 ft 447 kts 351°
2026-05-01 15:03 67.78172 31.91330 34781 ft 461 kts 351°
2026-05-01 15:03 67.84621 31.90331 34780 ft 474 kts 351°
2026-05-01 15:04 67.91231 31.89306 34772 ft 480 kts 351°
2026-05-01 15:04 67.97873 31.88275 34770 ft 480 kts 351°
2026-05-01 15:05 68.04507 31.87235 34764 ft 479 kts 351°
2026-05-01 15:05 68.11185 31.86181 34772 ft 480 kts 351°
2026-05-01 15:06 68.17805 31.85129 34773 ft 481 kts 351°
2026-05-01 15:06 68.24487 31.84062 34767 ft 480 kts 351°
2026-05-01 15:07 68.31095 31.83000 34768 ft 480 kts 351°
2026-05-01 15:07 68.37762 31.81920 34757 ft 482 kts 351°
2026-05-01 15:08 68.44430 31.80835 34751 ft 481 kts 351°
2026-05-01 15:08 68.51093 31.79745 34757 ft 481 kts 352°
2026-05-01 15:09 68.57722 31.78653 34756 ft 481 kts 351°
2026-05-01 15:09 68.64336 31.76880 34755 ft 476 kts 346°
2026-05-01 15:10 68.70853 31.74052 34750 ft 478 kts 346°
2026-05-01 15:10 68.80621 31.69776 34740 ft 478 kts 346°
2026-05-01 15:11 68.90419 31.65459 34723 ft 477 kts 346°
2026-05-01 15:12 68.96913 31.62578 34699 ft 477 kts 346°
2026-05-01 15:12 69.06726 31.58193 34699 ft 478 kts 346°
2026-05-01 15:14 69.23096 31.50789 34704 ft 481 kts 346°
2026-05-01 15:14 69.32942 31.46283 34686 ft 480 kts 346°
2026-05-01 15:15 69.46114 31.40187 34691 ft 484 kts 346°
2026-05-01 15:16 69.59300 31.34009 34701 ft 485 kts 345°
2026-05-01 15:18 69.75955 31.26096 34711 ft 487 kts 345°
2026-05-01 15:19 69.89306 31.19659 34698 ft 489 kts 345°
2026-05-01 15:19 69.99279 31.14798 34684 ft 489 kts 345°
2026-05-01 15:20 70.09312 31.09857 34671 ft 491 kts 345°
2026-05-01 15:21 70.16019 31.06527 34680 ft 492 kts 345°
2026-05-01 15:21 70.22765 31.03159 34684 ft 491 kts 345°
2026-05-01 15:22 70.32818 30.98094 34684 ft 492 kts 346°
2026-05-01 15:22 70.39534 30.94683 34679 ft 493 kts 346°
2026-05-01 15:23 70.46217 30.91266 34668 ft 491 kts 346°
2026-05-01 15:23 70.52992 30.87777 34680 ft 493 kts 346°
2026-05-01 15:24 70.59720 30.84290 34673 ft 494 kts 345°
2026-05-01 15:24 70.66431 30.80789 34689 ft 492 kts 346°
2026-05-01 15:25 70.73147 30.77259 34674 ft 494 kts 346°
2026-05-01 15:25 70.79881 30.73696 34681 ft 495 kts 346°
2026-05-01 15:26 70.86642 30.70096 34684 ft 495 kts 346°
2026-05-01 15:26 70.93411 30.66465 34669 ft 496 kts 346°
2026-05-01 15:27 71.00177 30.62812 34668 ft 496 kts 346°
2026-05-01 15:28 71.10346 30.57271 34657 ft 497 kts 346°
2026-05-01 15:28 71.17131 30.53543 34639 ft 498 kts 346°
2026-05-01 15:29 71.27382 30.47858 34639 ft 500 kts 346°
2026-05-01 15:30 71.41047 30.40185 34654 ft 503 kts 346°
2026-05-01 15:31 71.61729 30.28359 34656 ft 507 kts 345°
2026-05-01 15:32 71.75481 30.20353 34650 ft 507 kts 345°
2026-05-01 15:34 71.96249 30.08030 34622 ft 510 kts 346°